Find Starlink 36849

NORAD ID: 68304 Int'l Des: 2026-057 Owner: SPXS Country: US Constellation: starlink operational
LEOCIRCULARRETROGRADE

当前视图

正在加载3D地球...

About Starlink 36849

Starlink 36849 (NORAD 68304) is a starlink constellation satellite (v2 mini) launched Mar 20, 2026 by SPXS of US. It operates in LEO, CIRCULAR, RETROGRADE orbit with a mass of 575.00 kg.

关于 Starlink 36849

正在加载描述...

即将过境

Passes for default location (London). Set your location on the main map for personalized predictions.

高度历史

Loading altitude history...

两行轨道根数

1 68304U 26057L 26171.25002315 .00073439 00000-0 22582-2 0 9993
2 68304 97.2849 297.9012 0001488 79.8454 242.1366 15.33400529 5944
Epoch: Jun 20, 2026 • Age: 6 hours

当前状态

高度 494.9 km
速度 7.62 km/s
星下点 -82.06°S, 85.59°W
发射日期 Mar 20, 2026
运行时间 0.2 years
类型 internet

技术详情

分类 Payload
质量 575.00 kg
干质量 530.00 kg
总质量 575.00 kg
长度 0.30 m
直径 4.10 m
跨度 29.00 m
形状 Box + pan
制造商 SPXS
平台类型 Starlink V2MO
阶段状态 In Orbit
所有者/国家 SPXS/US

Most Searched